| time (UTC) | temp F | wind direction | speed knots | gust knots | rain 1hr in | rain 24hr in | rain mn in | humidity % | barometer mb |
| 20260510130004 | 68 | 329 | 4.3 | 7.8 | 0.00 | 0.00 | 0.00 | 49 | 1011.4 |
| 20260510124504 | 69 | 351 | 2.6 | 8.7 | 0.00 | 0.00 | 0.00 | 48 | 1011.6 |
| 20260510123004 | 69 | 36 | 5.2 | 8.7 | 0.00 | 0.00 | 0.00 | 46 | 1011.6 |
| 20260510121504 | 69 | 2 | 4.3 | 10.4 | 0.00 | 0.00 | 0.00 | 43 | 1011.7 |
| 20260510120005 | 70 | 357 | 4.3 | 11.3 | 0.00 | 0.00 | 0.00 | 44 | 1011.9 |
| 20260510114504 | 69 | 311 | 7.8 | 13.9 | 0.00 | 0.00 | 0.00 | 38 | 1012.0 |
| 20260510113005 | 71 | 340 | 5.2 | 11.3 | 0.00 | 0.00 | 0.00 | 36 | 1012.1 |
| 20260510110004 | 72 | 117 | 3.5 | 11.3 | 0.00 | 0.00 | 0.00 | 32 | 1012.4 |
| 20260510103005 | 71 | 162 | 7.0 | 15.6 | 0.00 | 0.00 | 0.00 | 33 | 1012.7 |
| 20260510101504 | 71 | 205 | 5.2 | 11.3 | 0.00 | 0.00 | 0.00 | 34 | 1012.8 |
| 20260510100004 | 71 | 230 | 1.7 | 13.9 | 0.00 | 0.00 | 0.00 | 35 | 1012.6 |
| 20260510094504 | 71 | 139 | 7.0 | 13.9 | 0.00 | 0.00 | 0.00 | 34 | 1012.7 |
| 20260510093005 | 72 | 190 | 3.5 | 10.4 | 0.00 | 0.00 | 0.00 | 34 | 1012.9 |
| 20260510091504 | 70 | 197 | 4.3 | 12.2 | 0.00 | 0.00 | 0.00 | 35 | 1012.9 |
| 20260510090005 | 70 | 179 | 5.2 | 12.2 | 0.00 | 0.00 | 0.00 | 36 | 1012.9 |
| 20260510083004 | 68 | 172 | 7.8 | 14.8 | 0.00 | 0.00 | 0.00 | 37 | 1012.9 |
| 20260510080004 | 68 | 195 | 5.2 | 10.4 | 0.00 | 0.00 | 0.00 | 39 | 1012.6 |
| 20260510074504 | 67 | 179 | 7.8 | 17.4 | 0.00 | 0.00 | 0.00 | 39 | 1012.5 |
| 20260510073005 | 67 | 173 | 7.8 | 19.1 | 0.00 | 0.00 | 0.00 | 41 | 1012.4 |
| 20260510071504 | 66 | 190 | 7.8 | 17.4 | 0.00 | 0.00 | 0.00 | 42 | 1012.1 |
| 20260510070004 | 66 | 177 | 10.4 | 17.4 | 0.00 | 0.00 | 0.00 | 42 | 1012.0 |
| 20260510064504 | 66 | 180 | 6.1 | 11.3 | 0.00 | 0.00 | 0.00 | 44 | 1011.9 |
| 20260510063005 | 65 | 186 | 7.8 | 13.9 | 0.00 | 0.00 | 0.00 | 44 | 1011.8 |
| 20260510060004 | 65 | 186 | 8.7 | 17.4 | 0.00 | 0.00 | 0.00 | 44 | 1011.3 |
| 20260510054504 | 65 | 186 | 7.8 | 17.4 | 0.00 | 0.00 | 0.00 | 44 | 1011.2 |
| 20260510053004 | 64 | 170 | 7.0 | 12.2 | 0.00 | 0.00 | 0.00 | 45 | 1011.2 |
| 20260510051504 | 64 | 179 | 7.8 | 17.4 | 0.00 | 0.00 | 0.00 | 46 | 1011.1 |
| 20260510050005 | 64 | 177 | 7.8 | 11.3 | 0.00 | 0.00 | 0.00 | 48 | 1011.1 |
| 20260510044504 | 64 | 166 | 5.2 | 11.3 | 0.00 | 0.00 | 0.00 | 48 | 1011.1 |
| 20260510043004 | 64 | 166 | 7.0 | 12.2 | 0.00 | 0.00 | 0.00 | 48 | 1011.2 |
| 20260510040004 | 64 | 176 | 7.8 | 12.2 | 0.00 | 0.00 | 0.00 | 47 | 1011.3 |
| 20260510034504 | 65 | 180 | 7.8 | 11.3 | 0.00 | 0.00 | 0.00 | 46 | 1011.3 |
| 20260510033005 | 65 | 162 | 5.2 | 12.2 | 0.00 | 0.00 | 0.00 | 46 | 1011.3 |
| 20260510031503 | 66 | 178 | 6.1 | 12.2 | 0.00 | 0.00 | 0.00 | 46 | 1011.2 |
| 20260510030004 | 65 | 173 | 7.0 | 10.4 | 0.00 | 0.00 | 0.00 | 46 | 1011.2 |
| 20260510024504 | 66 | 173 | 5.2 | 11.3 | 0.00 | 0.00 | 0.00 | 46 | 1011.2 |
| 20260510023004 | 65 | 162 | 6.1 | 10.4 | 0.00 | 0.00 | 0.00 | 47 | 1011.2 |
| 20260510021504 | 65 | 216 | 4.3 | 12.2 | 0.00 | 0.00 | 0.00 | 47 | 1011.2 |
| 20260510020005 | 65 | 170 | 5.2 | 10.4 | 0.00 | 0.00 | 0.00 | 47 | 1011.3 |
| 20260510014504 | 65 | 170 | 6.1 | 11.3 | 0.00 | 0.00 | 0.00 | 47 | 1011.3 |
| 20260510010005 | 66 | 166 | 8.7 | 18.2 | 0.00 | 0.00 | 0.00 | 45 | 1011.4 |
| 20260510004504 | 66 | 158 | 7.8 | 18.2 | 0.00 | 0.00 | 0.00 | 45 | 1011.3 |
| 20260510003004 | 67 | 179 | 10.4 | 19.1 | 0.00 | 0.00 | 0.00 | 45 | 1011.2 |
| 20260510001505 | 67 | 166 | 10.4 | 17.4 | 0.00 | 0.00 | 0.00 | 45 | 1011.3 |
| 20260510000004 | 67 | 170 | 6.1 | 14.8 | 0.00 | 0.00 | 0.00 | 43 | 1011.3 |
| 20260509234504 | 67 | 180 | 5.2 | 15.6 | 0.00 | 0.00 | 0.00 | 43 | 1011.4 |
| 20260509233005 | 68 | 151 | 5.2 | 14.8 | 0.00 | 0.00 | 0.00 | 43 | 1011.3 |
| 20260509231504 | 68 | 166 | 7.8 | 14.8 | 0.00 | 0.00 | 0.00 | 44 | 1011.4 |
| 20260509230004 | 67 | 158 | 2.6 | 13.9 | 0.00 | 0.00 | 0.00 | 44 | 1011.6 |
| 20260509224504 | 67 | 156 | 2.6 | 10.4 | 0.00 | 0.00 | 0.00 | 44 | 1011.7 |
| 20260509223004 | 67 | 147 | 3.5 | 10.4 | 0.00 | 0.00 | 0.00 | 45 | 1011.9 |
| 20260509221505 | 65 | 157 | 1.7 | 5.2 | 0.00 | 0.00 | 0.00 | 48 | 1011.9 |
| 20260509220004 | 65 | 132 | 1.7 | 5.2 | 0.00 | 0.00 | 0.00 | 48 | 1012.0 |
| 20260509214504 | 66 | 175 | 1.7 | 2.6 | 0.00 | 0.00 | 0.00 | 46 | 1011.9 |
| 20260509213005 | 67 | 175 | 0.9 | 2.6 | 0.00 | 0.00 | 0.00 | 44 | 1011.9 |
| 20260509211504 | 68 | 175 | 0.9 | 10.4 | 0.00 | 0.00 | 0.00 | 43 | 1011.7 |
| 20260509210004 | 68 | 191 | 5.2 | 10.4 | 0.00 | 0.00 | 0.00 | 43 | 1011.8 |
| 20260509204504 | 68 | 163 | 0.9 | 5.2 | 0.00 | 0.00 | 0.00 | 45 | 1011.8 |
| 20260509201504 | 70 | 144 | 0.9 | 5.2 | 0.00 | 0.00 | 0.00 | 42 | 1011.5 |
| 20260509200004 | 70 | 140 | 2.6 | 10.4 | 0.00 | 0.00 | 0.00 | 41 | 1011.3 |
| 20260509194504 | 71 | 53 | 1.7 | 7.8 | 0.00 | 0.00 | 0.00 | 40 | 1011.3 |
| 20260509191504 | 71 | 125 | 2.6 | 10.4 | 0.00 | 0.00 | 0.00 | 38 | 1011.4 |
| 20260509190004 | 71 | 113 | 3.5 | 8.7 | 0.00 | 0.00 | 0.00 | 37 | 1011.1 |
| 20260509184504 | 70 | 158 | 2.6 | 7.8 | 0.00 | 0.00 | 0.00 | 43 | 1011.0 |
| 20260509183004 | 70 | 344 | 0.9 | 2.6 | 0.00 | 0.00 | 0.00 | 48 | 1011.2 |
| 20260509181505 | 71 | 28 | 2.6 | 4.3 | 0.00 | 0.00 | 0.00 | 46 | 1011.1 |
| 20260509180004 | 71 | 17 | 1.7 | 4.3 | 0.00 | 0.00 | 0.00 | 46 | 1010.9 |
| 20260509174504 | 71 | 344 | 0.9 | 7.8 | 0.00 | 0.00 | 0.00 | 45 | 1010.7 |
| 20260509173004 | 73 | 345 | 4.3 | 7.0 | 0.00 | 0.00 | 0.00 | 41 | 1010.5 |
| 20260509170004 | 73 | 115 | 1.7 | 7.0 | 0.00 | 0.00 | 0.00 | 37 | 1010.2 |
| 20260509164504 | 73 | 161 | 2.6 | 8.7 | 0.00 | 0.00 | 0.00 | 36 | 1010.2 |
| 20260509163004 | 73 | 171 | 2.6 | 10.4 | 0.00 | 0.00 | 0.00 | 35 | 1010.2 |
| 20260509161504 | 73 | 177 | 5.2 | 10.4 | 0.00 | 0.00 | 0.00 | 35 | 1010.3 |
| 20260509154504 | 73 | 146 | 3.5 | 10.4 | 0.00 | 0.00 | 0.00 | 36 | 1010.3 |
| 20260509153004 | 74 | 132 | 4.3 | 10.4 | 0.00 | 0.00 | 0.00 | 35 | 1010.4 |
| 20260509151504 | 74 | 199 | 5.2 | 14.8 | 0.00 | 0.00 | 0.00 | 35 | 1010.5 |
| 20260509143005 | 73 | 124 | 4.3 | 12.2 | 0.00 | 0.00 | 0.00 | 36 | 1010.6 |
| 20260509141503 | 73 | 142 | 6.1 | 14.8 | 0.00 | 0.00 | 0.00 | 37 | 1010.9 |
| 20260509140005 | 73 | 191 | 6.1 | 15.6 | 0.00 | 0.00 | 0.00 | 36 | 1011.3 |
| 20260509134504 | 73 | 148 | 7.0 | 15.6 | 0.00 | 0.00 | 0.00 | 35 | 1011.3 |
| 20260509133005 | 72 | 164 | 6.1 | 14.8 | 0.00 | 0.00 | 0.00 | 37 | 1011.4 |
| 20260509131504 | 72 | 168 | 3.5 | 12.2 | 0.00 | 0.00 | 0.00 | 38 | 1011.5 |